World > North America > United States > Texas

Hourly Winkler, TX Regional Weather

Feedback E-mail the Weather

Quick WX

Winkler, TX Weather Maps

°F °C°F °C
Winkler Weather Map
UTC Time: 7/4/2022, 00:35
Your Time:

Winkler, TX Regional Weather

Expires:202207040100;;636738
ASUS44 KFWD 040015
RWRTX 
NORTH TEXAS HOURLY WEATHER ROUNDUP
NATIONAL WEATHER SERVICE FORT WORTH TX
700 PM CDT SUN JUL 03 2022

NOTE: "FAIR" INDICATES FEW OR NO CLOUDS BELOW 12,000 FEET WITH NO
SIGNIFICANT WEATHER AND/OR OBSTRUCTIONS TO VISIBILITY.


TXZ143>147-156>162-174-175-040100-
CENTRAL TEXAS
  
CITY           SKY/WX    TMP DP  RH WIND       PRES   REMARKS
WACO           FAIR      99  64  31 S9        29.92F HX 101           
6HR MIN TEMP:  97; 6HR MAX TEMP: 102;                                

WACO-TSTC      MOSUNNY  100  59  25 S3        29.92F HX 100           
WACO-MCGREGOR  FAIR      99  67  35 S10       29.93F HX 103           
6HR MIN TEMP:  96; 6HR MAX TEMP: 101;                                

HILLSBORO      FAIR     100  63  30 S10       29.94R HX 102           
6HR MIN TEMP:  95; 6HR MAX TEMP: 101;                                

CORSICANA      FAIR      98  63  31 S8        29.95S HX 100           
6HR MIN TEMP:  94; 6HR MAX TEMP: 100;                                

MEXIA          PTSUNNY   97  66  35 S9        29.94S HX 101           
6HR MIN TEMP:  94; 6HR MAX TEMP: 101;                                

HEARNE         FAIR      99  67  34 SE6       29.93F HX 103           
6HR MIN TEMP:  96; 6HR MAX TEMP: 101;                                

CAMERON        FAIR      99  63  31 S9        29.92F HX 101           
6HR MIN TEMP:  96; 6HR MAX TEMP: 101;                                

TEMPLE         FAIR      98  66  34 SE13      29.94F HX 101           
6HR MIN TEMP:  95; 6HR MAX TEMP: 100;                                

KILLEEN        FAIR      95  62  32 SE13      29.92S HX  96           
6HR MIN TEMP:  94; 6HR MAX TEMP: 100;                                

KILLEEN-SKYLRK FAIR      97  65  34 S14       29.95S HX  99           
6HR MIN TEMP:  95; 6HR MAX TEMP: 100;                                

FORT HOOD      FAIR      97  63  32 S9        29.95S HX  98           
6HR MIN TEMP:  94; 6HR MAX TEMP: 100;                                

GATESVILLE     FAIR      97  63  32 MISG      29.96S HX  98           
HAMILTON       FAIR      97  60  29 S10       29.97S HX  97           
6HR MIN TEMP:  95; 6HR MAX TEMP: 101;                                

LAMPASAS       FAIR      95  59  29 SE10        N/A  HX  95           
6HR MIN TEMP:  92; 6HR MAX TEMP:  97;                                

$$


SKY/WX - Weather  TMP - Temperature  DP - Dew Point  RH - Humidity
WIND - Wind Direction/Speed PRES - Barometric Pressure VSB - Visibility
WCI - Wind Chill Index E13G22 Wind - East Wind 13 mph/Gusts of 22 mph

Trending Headlines

Winkler Radar Loop



Winkler Quick Facts


National Two Day Weather Forecast


E-mail the Winkler Weather Forecast

Voice your opinion or tell us about page issues...